| time (UTC) | temp F | wind direction | speed MPH | gust MPH | rain 1hr in | rain 24hr in | rain mn in | humidity % | barometer mb |
| 20260502163522 | 54 | 293 | 7.0 | 9.0 | 0.00 | 0.00 | 0.00 | 43 | 1021.8 |
| 20260502162522 | 53 | 23 | 1.0 | 2.0 | 0.00 | 0.00 | 0.00 | 44 | 1021.9 |
| 20260502161522 | 53 | 338 | 1.0 | 2.0 | 0.00 | 0.00 | 0.00 | 45 | 1022.0 |
| 20260502160522 | 54 | 23 | 2.0 | 3.0 | 0.00 | 0.00 | 0.00 | 41 | 1022.0 |
| 20260502151522 | 52 | 135 | 2.0 | 4.0 | 0.00 | 0.00 | 0.00 | 59 | 1022.1 |
| 20260502150522 | 51 | 180 | 1.0 | 2.0 | 0.00 | 0.00 | 0.00 | 59 | 1022.0 |
| 20260502130521 | 44 | 90 | 3.0 | 6.0 | 0.00 | 0.00 | 0.00 | 78 | 1021.5 |
| 20260502123521 | 42 | 90 | 3.0 | 5.0 | 0.00 | 0.00 | 0.00 | 81 | 1021.3 |
| 20260502122521 | 41 | 90 | 3.0 | 6.0 | 0.00 | 0.00 | 0.00 | 83 | 1021.3 |
| 20260502121521 | 40 | 90 | 3.0 | 4.0 | 0.00 | 0.00 | 0.00 | 85 | 1021.1 |
| 20260502120521 | 40 | 68 | 4.0 | 8.0 | 0.00 | 0.00 | 0.00 | 85 | 1021.1 |
| 20260502115522 | 40 | 90 | 2.0 | 3.0 | 0.00 | 0.00 | 0.00 | 86 | 1020.9 |
| 20260502114521 | 40 | 68 | 5.0 | 7.0 | 0.00 | 0.00 | 0.00 | 86 | 1020.8 |
| 20260502113521 | 40 | 90 | 5.0 | 7.0 | 0.00 | 0.00 | 0.00 | 86 | 1020.7 |
| 20260502112521 | 40 | 68 | 5.0 | 8.0 | 0.00 | 0.00 | 0.00 | 86 | 1020.7 |
| 20260502111611 | 40 | 68 | 3.0 | 6.0 | 0.00 | 0.00 | 0.00 | 86 | 1020.7 |
| 20260502110521 | 40 | 68 | 4.0 | 8.0 | 0.00 | 0.00 | 0.00 | 86 | 1020.6 |
| 20260502105521 | 40 | 113 | 1.0 | 3.0 | 0.00 | 0.00 | 0.00 | 85 | 1020.6 |
| 20260502104522 | 40 | 68 | 3.0 | 5.0 | 0.00 | 0.00 | 0.00 | 85 | 1020.6 |
| 20260502103521 | 41 | 68 | 1.0 | 2.0 | 0.00 | 0.00 | 0.00 | 85 | 1020.6 |
| 20260502102521 | 41 | 68 | 3.0 | 5.0 | 0.00 | 0.00 | 0.00 | 85 | 1020.6 |
| 20260502101521 | 41 | 68 | 3.0 | 5.0 | 0.00 | 0.00 | 0.00 | 86 | 1020.6 |
| 20260502100546 | 40 | 68 | 3.0 | 4.0 | 0.00 | 0.00 | 0.00 | 86 | 1020.4 |
| 20260502091521 | 40 | 45 | 3.0 | 5.0 | 0.00 | 0.00 | 0.00 | 89 | 1020.2 |
| 20260502090521 | 40 | 0.0 | 0.0 | 0.00 | 0.00 | 0.00 | 89 | 1019.9 | |
| 20260502071520 | 42 | 0.0 | 0.0 | 0.00 | 0.00 | 0.00 | 88 | 1019.6 | |
| 20260502070521 | 41 | 0.0 | 0.0 | 0.00 | 0.00 | 0.00 | 87 | 1019.6 | |
| 20260502065520 | 41 | 0.0 | 0.0 | 0.00 | 0.00 | 0.00 | 87 | 1019.6 | |
| 20260502064521 | 41 | 0.0 | 0.0 | 0.00 | 0.00 | 0.00 | 86 | 1019.7 | |
| 20260502063521 | 41 | 0.0 | 0.0 | 0.00 | 0.00 | 0.00 | 86 | 1019.8 | |
| 20260502062520 | 42 | 0.0 | 0.0 | 0.00 | 0.00 | 0.00 | 86 | 1019.8 | |
| 20260502061521 | 42 | 0.0 | 0.0 | 0.00 | 0.00 | 0.00 | 85 | 1019.8 | |
| 20260502060520 | 42 | 0.0 | 0.0 | 0.00 | 0.00 | 0.00 | 85 | 1019.8 | |
| 20260502055520 | 42 | 0.0 | 0.0 | 0.00 | 0.00 | 0.00 | 84 | 1019.8 | |
| 20260502054520 | 42 | 0.0 | 0.0 | 0.00 | 0.00 | 0.00 | 83 | 1019.8 | |
| 20260502053522 | 42 | 0.0 | 0.0 | 0.00 | 0.00 | 0.00 | 82 | 1019.8 | |
| 20260502052523 | 42 | 0.0 | 0.0 | 0.00 | 0.00 | 0.00 | 81 | 1019.8 | |
| 20260502051547 | 43 | 0.0 | 0.0 | 0.00 | 0.00 | 0.00 | 81 | 1019.8 | |
| 20260502050523 | 43 | 0.0 | 0.0 | 0.00 | 0.00 | 0.00 | 81 | 1019.9 | |
| 20260502045522 | 43 | 0.0 | 0.0 | 0.00 | 0.00 | 0.00 | 81 | 1019.9 | |
| 20260502044522 | 44 | 0.0 | 0.0 | 0.00 | 0.00 | 0.00 | 80 | 1019.8 | |
| 20260502043612 | 44 | 0.0 | 0.0 | 0.00 | 0.00 | 0.00 | 79 | 1019.8 | |
| 20260502042522 | 44 | 0.0 | 0.0 | 0.00 | 0.00 | 0.00 | 79 | 1019.7 | |
| 20260502041522 | 45 | 0.0 | 0.0 | 0.00 | 0.00 | 0.00 | 78 | 1019.7 | |
| 20260502040522 | 45 | 0.0 | 0.0 | 0.00 | 0.00 | 0.00 | 76 | 1019.7 | |
| 20260502035523 | 46 | 0.0 | 0.0 | 0.00 | 0.00 | 0.00 | 75 | 1019.9 | |
| 20260502034522 | 46 | 0.0 | 0.0 | 0.00 | 0.00 | 0.00 | 75 | 1019.8 | |
| 20260502033523 | 47 | 0.0 | 0.0 | 0.00 | 0.00 | 0.00 | 75 | 1019.8 | |
| 20260502032547 | 47 | 0.0 | 0.0 | 0.00 | 0.00 | 0.00 | 75 | 1019.7 | |
| 20260502031522 | 47 | 0.0 | 0.0 | 0.00 | 0.00 | 0.00 | 75 | 1019.5 | |
| 20260502030522 | 47 | 0.0 | 0.0 | 0.00 | 0.00 | 0.00 | 74 | 1019.6 | |
| 20260502025522 | 47 | 338 | 2.0 | 3.0 | 0.00 | 0.00 | 0.00 | 76 | 1019.4 |
| 20260502024548 | 47 | 0.0 | 0.0 | 0.00 | 0.00 | 0.00 | 75 | 1019.2 | |
| 20260502023547 | 47 | 0.0 | 1.0 | 0.00 | 0.00 | 0.00 | 72 | 1019.1 | |
| 20260502022522 | 48 | 0.0 | 0.0 | 0.00 | 0.00 | 0.00 | 72 | 1019.0 | |
| 20260502021522 | 48 | 45 | 1.0 | 1.0 | 0.00 | 0.00 | 0.00 | 71 | 1018.8 |
| 20260502020548 | 49 | 0.0 | 0.0 | 0.00 | 0.00 | 0.00 | 68 | 1018.6 | |
| 20260502015613 | 49 | 0.0 | 0.0 | 0.00 | 0.00 | 0.00 | 67 | 1018.4 | |
| 20260502014548 | 50 | 0.0 | 1.0 | 0.00 | 0.00 | 0.00 | 66 | 1018.2 | |
| 20260502013521 | 50 | 0.0 | 1.0 | 0.00 | 0.00 | 0.00 | 65 | 1018.1 | |
| 20260502012537 | 51 | 0.0 | 0.0 | 0.00 | 0.00 | 0.00 | 63 | 1018.0 | |
| 20260502011517 | 51 | 0.0 | 1.0 | 0.00 | 0.00 | 0.00 | 63 | 1017.9 | |
| 20260502010517 | 51 | 0.0 | 1.0 | 0.00 | 0.00 | 0.00 | 61 | 1017.7 | |
| 20260502005517 | 52 | 45 | 1.0 | 3.0 | 0.00 | 0.00 | 0.00 | 60 | 1017.6 |
| 20260502004517 | 52 | 0 | 1.0 | 2.0 | 0.00 | 0.00 | 0.00 | 59 | 1017.5 |
| 20260502003537 | 52 | 23 | 3.0 | 6.0 | 0.00 | 0.00 | 0.00 | 58 | 1017.5 |
| 20260502002536 | 53 | 315 | 4.0 | 8.0 | 0.00 | 0.00 | 0.00 | 58 | 1017.4 |
| 20260502001516 | 53 | 315 | 4.0 | 5.0 | 0.00 | 0.00 | 0.00 | 58 | 1017.2 |
| 20260502000516 | 54 | 0 | 7.0 | 9.0 | 0.00 | 0.00 | 0.00 | 57 | 1017.2 |
| 20260501235517 | 54 | 315 | 3.0 | 4.0 | 0.00 | 0.00 | 0.00 | 55 | 1017.2 |
| 20260501234557 | 55 | 23 | 2.0 | 3.0 | 0.00 | 0.00 | 0.00 | 53 | 1017.1 |
| 20260501233517 | 55 | 68 | 3.0 | 4.0 | 0.00 | 0.00 | 0.00 | 53 | 1017.0 |
| 20260501232516 | 55 | 45 | 1.0 | 2.0 | 0.00 | 0.00 | 0.00 | 52 | 1017.1 |
| 20260501231517 | 56 | 338 | 1.0 | 3.0 | 0.00 | 0.00 | 0.00 | 53 | 1017.1 |
| 20260501230516 | 55 | 0.0 | 0.0 | 0.00 | 0.00 | 0.00 | 54 | 1017.2 | |
| 20260501225517 | 55 | 0.0 | 1.0 | 0.00 | 0.00 | 0.00 | 55 | 1017.2 | |
| 20260501224516 | 54 | 203 | 2.0 | 3.0 | 0.00 | 0.00 | 0.00 | 56 | 1017.1 |
| 20260501223516 | 53 | 158 | 2.0 | 2.0 | 0.00 | 0.00 | 0.00 | 60 | 1017.1 |
| 20260501222516 | 54 | 203 | 5.0 | 7.0 | 0.00 | 0.00 | 0.00 | 59 | 1017.4 |
| 20260501221516 | 55 | 293 | 4.0 | 7.0 | 0.00 | 0.00 | 0.00 | 52 | 1017.5 |
| 20260501220516 | 55 | 0 | 2.0 | 4.0 | 0.00 | 0.00 | 0.00 | 52 | 1017.2 |
| 20260501215516 | 55 | 23 | 2.0 | 3.0 | 0.00 | 0.00 | 0.00 | 52 | 1017.2 |
| 20260501214516 | 55 | 338 | 2.0 | 4.0 | 0.00 | 0.00 | 0.00 | 53 | 1017.3 |
| 20260501213516 | 55 | 338 | 2.0 | 3.0 | 0.00 | 0.00 | 0.00 | 55 | 1017.5 |
| 20260501212516 | 53 | 315 | 4.0 | 7.0 | 0.00 | 0.00 | 0.00 | 59 | 1017.5 |
| 20260501211516 | 53 | 338 | 2.0 | 3.0 | 0.00 | 0.00 | 0.00 | 61 | 1017.7 |
| 20260501210516 | 53 | 315 | 3.0 | 4.0 | 0.00 | 0.00 | 0.00 | 58 | 1017.8 |
| 20260501205516 | 53 | 293 | 3.0 | 4.0 | 0.00 | 0.00 | 0.00 | 59 | 1017.9 |
| 20260501204516 | 53 | 293 | 7.0 | 10.0 | 0.00 | 0.00 | 0.00 | 56 | 1018.0 |
| 20260501203536 | 56 | 270 | 7.0 | 12.0 | 0.00 | 0.00 | 0.00 | 52 | 1018.0 |
| 20260501202516 | 56 | 0 | 4.0 | 7.0 | 0.00 | 0.00 | 0.00 | 48 | 1017.9 |
| 20260501201516 | 57 | 0 | 7.0 | 11.0 | 0.00 | 0.00 | 0.00 | 46 | 1017.7 |
| 20260501200516 | 57 | 0 | 2.0 | 4.0 | 0.00 | 0.00 | 0.00 | 44 | 1017.6 |
| 20260501195516 | 58 | 203 | 3.0 | 6.0 | 0.00 | 0.00 | 0.00 | 43 | 1017.7 |
| 20260501194516 | 60 | 180 | 4.0 | 6.0 | 0.00 | 0.00 | 0.00 | 46 | 1017.7 |
| 20260501193516 | 58 | 158 | 1.0 | 2.0 | 0.00 | 0.00 | 0.00 | 44 | 1017.7 |
| 20260501192516 | 56 | 248 | 3.0 | 5.0 | 0.00 | 0.00 | 0.00 | 47 | 1018.0 |
| 20260501191516 | 56 | 203 | 3.0 | 5.0 | 0.00 | 0.00 | 0.00 | 47 | 1018.0 |
| 20260501190516 | 56 | 225 | 3.0 | 5.0 | 0.00 | 0.00 | 0.00 | 44 | 1018.0 |
| 20260501185516 | 57 | 293 | 2.0 | 4.0 | 0.00 | 0.00 | 0.00 | 44 | 1018.0 |
| 20260501184536 | 56 | 203 | 5.0 | 8.0 | 0.00 | 0.00 | 0.00 | 45 | 1018.0 |
| 20260501183516 | 56 | 225 | 4.0 | 4.0 | 0.00 | 0.00 | 0.00 | 43 | 1018.1 |
| 20260501182516 | 56 | 293 | 5.0 | 8.0 | 0.00 | 0.00 | 0.00 | 43 | 1018.1 |
| 20260501181515 | 56 | 315 | 8.0 | 11.0 | 0.00 | 0.00 | 0.00 | 44 | 1018.1 |
| 20260501180515 | 56 | 248 | 5.0 | 8.0 | 0.00 | 0.00 | 0.00 | 44 | 1018.2 |
| 20260501175515 | 58 | 270 | 6.0 | 11.0 | 0.00 | 0.00 | 0.00 | 46 | 1018.3 |
| 20260501174515 | 57 | 225 | 2.0 | 7.0 | 0.00 | 0.00 | 0.00 | 47 | 1018.4 |
| 20260501173515 | 56 | 315 | 2.0 | 4.0 | 0.00 | 0.00 | 0.00 | 44 | 1018.5 |
| 20260501172516 | 56 | 203 | 5.0 | 6.0 | 0.00 | 0.00 | 0.00 | 46 | 1018.5 |
| 20260501171516 | 55 | 0.0 | 0.0 | 0.00 | 0.00 | 0.00 | 46 | 1018.6 |